RJCBRJCK

Guest
Details From RJCB - OBIHIRO
To RJCK - KUSHIRO
Flight Number -
Tags generated
Created
Modified
Stats Distance 47 nm / 87 km
Max Altitude 0 ft / 0 m
Waypoints 3
Social Downloads 0
Likes 0
Share VATSIM

Download

Looking for another format? Having issues loading an existing format? Contact us
Advertisement - Login to hide

Notes

Basic altitude profile: - Ascent Rate: 2500ft/min - Ascent Speed: 250kts - Cruise Altitude: 35000ft - Cruise Speed: 420kts - Descent Rate: 1500ft/min - Descent Speed: 250kts Options: - Use NATs: yes - Use PACOTS: yes - Use low airways: yes - Use high airways: yes

Route

RJCB OBE RJCK

ID Type Via Altitude Latitude Longitude Leg Dist Tot Dist Heading (true) Name
O RJCB APT - 0 ft / 0 m 42.73360˚ 143.21743˚ - 0 nm - OBIHIRO
OBE VOR - 0 ft / 0 m 42.73396˚ 143.22045˚ 0 nm 0 nm 81° / 81° OBIHIRO VOR-DME
O RJCK APT - 0 ft / 0 m 43.04097˚ 144.19299˚ 46 nm 46 nm 66° / 67° KUSHIRO

Altitude Profile

Advertisement - Login to hide

RJCB

Details ICAO RJCB (OBO)
Name OBIHIRO
Region Japan
Timezone Asia/Tokyo (UTC+9.0)
Stats Elevation 505 ft / 154 m (AMSL)
Location 42.733601° 143.217426°
Runways 1
Magnetic Variation 9.090° W

METAR

RJCB 250900Z VRB02KT 9999 FEW025 15/09 Q1000

Decode

TAF

TAF TAF RJCB 250507Z 2506/2612 33007KT 9999 FEW015 BKN040

Decode

Departure Runways

ID Width Length Bearing (true) Bearing (mag) Surface Threshold Offset Overrun Length
17 150 ft / 46 m 8,209 ft / 2,502 m 159.37° 168.46° Asphalt 0 ft / 0 m 200 ft / 61 m
35 150 ft / 46 m 8,209 ft / 2,502 m 339.37° 348.46° Asphalt 0 ft / 0 m 200 ft / 61 m

RJCK

Details ICAO RJCK (KUH)
Name KUSHIRO
Region Japan
Timezone Asia/Tokyo (UTC+9.0)
Stats Elevation 327 ft / 100 m (AMSL)
Location 43.040970° 144.192986°
Runways 1
Magnetic Variation 8.967° W

METAR

RJCK 250900Z 20010KT 9999 FEW015 SCT030 FEW030CB BKN/// 11/08 Q1000

Decode

TAF

TAF RJCK 250510Z 2506/2612 21010KT 9999 FEW015 SCT030 TEMPO 2506/2509 FEW015 BKN030 FEW030CB BECMG 2510/2512 29005KT BECMG 2600/2603 19012KT BECMG 2606/2609 04005KT

Decode

Destination Runways

ID Width Length Bearing (true) Bearing (mag) Surface Threshold Offset Overrun Length
17 150 ft / 46 m 8,209 ft / 2,502 m 159.02° 167.99° Asphalt 0 ft / 0 m 200 ft / 61 m
35 150 ft / 46 m 8,209 ft / 2,502 m 339.03° 348.00° Asphalt 0 ft / 0 m 200 ft / 61 m

Approach Navaids

Runway Type Ident Frequency Range Bearing (true) Bearing (mag) Slope Elevation
17 Localiser IKS 108.90 MHz 18 nm / 33 km 159.03° 167.99° - 327 ft / 100 m (AMSL)
17 Glidescope IKS 108.90 MHz 10 nm / 19 km 159.03° 167.99° 3.00° 322 ft / 98 m (AMSL)